Cairns, Australia

7:49 PM AEST on November 25, 2017 (GMT +1000)
Cairns International

Weather History for YBCS - December, 2012

Change the Weather History Date:

Tuesday, December 11, 2012

  Actual Average Record
Temperature  
Mean Temperature 81 °F -  
Max Temperature 89 °F 88 °F 93 °F (2001)
Min Temperature 73 °F 74 °F 68 °F (2013)
Cooling Degree Days 16    
Growing Degree Days 31 (Base 50)    
Moisture  
Dew Point 67 °F    
Average Humidity 64    
Maximum Humidity 94    
Minimum Humidity 32    
Precipitation  
Precipitation 0.00 in 0.35 in - ()
Sea Level Pressure  
Sea Level Pressure 29.89 in    
Wind  
Wind Speed 12 mph ()    
Max Wind Speed 23 mph    
Max Gust Speed -    
Visibility 6.4 miles    
Events Rain    
Averages and records for this station are not official NWS values.
T = Trace of Precipitation, MM = Missing Value Source: Averaged Metar Reports

Daily Weather History Graph

Daily Weather History Graph

Search for Another Location

Airport or City:

Trip Planner

Search our weather history database for the weather conditions in past years. The results will help you decide how hot, cold, wet, or windy it might be!

Date:

Astronomy

Dec. 11, 2012 Rise Set
Actual Time 5:36 AM AEST 6:43 PM AEST
Civil Twilight 5:12 AM AEST 7:07 PM AEST
Nautical Twilight 4:44 AM AEST 7:36 PM AEST
Astronomical Twilight 4:15 AM AEST 8:05 PM AEST
Moon 3:14 AM AEST (12/11) 4:27 PM AEST (12/11)
Length of Visible Light 13h 54m
Length of Day
13h 07m
Waning Crescent, 8% of the Moon is Illuminated
Dec 11
Waning Crescent
Dec 13
New
Dec 20
First Quarter
Dec 28
Full
Jan 5
Last Quarter

Hourly Weather History & Observations

Time (AEST) Temp. Heat Index Dew Point Humidity Pressure Visibility Wind Dir Wind Speed Gust Speed Precip Events Conditions
12:00 AM 75 °F - 70 °F 80% 29.93 in - SSE 10.4 mph - -  
12:00 AM 75.2 °F - 69.8 °F 83% 29.92 in 6.2 mi SSE 10.4 mph - N/A   Partly Cloudy
12:30 AM 75.2 °F - 69.8 °F 83% 29.92 in 6.2 mi South 9.2 mph - N/A   Partly Cloudy
1:00 AM 76 °F - 69 °F 73% 29.91 in - South 8.1 mph - -  
1:00 AM 77.0 °F - 69.8 °F 78% 29.89 in 6.2 mi South 8.1 mph - N/A   Partly Cloudy
1:30 AM 77.0 °F - 69.8 °F 78% 29.89 in 6.2 mi SSE 9.2 mph - N/A   Scattered Clouds
2:00 AM 77.0 °F - 69.8 °F 78% 29.86 in 6.2 mi South 10.4 mph - N/A   Scattered Clouds
2:25 AM 75.2 °F - 71.6 °F 89% 29.86 in 3.1 mi South 9.2 mph - N/A Rain Rain Showers
2:30 AM 73.4 °F - 71.6 °F 94% 29.89 in 3.1 mi SE 11.5 mph - N/A Rain Rain Showers
2:47 AM 73.4 °F - 69.8 °F 88% 29.86 in 6.2 mi SSE 9.2 mph - N/A   Scattered Clouds
3:00 AM 74 °F - 71 °F 86% 29.88 in - South 8.1 mph - -  
3:00 AM 73.4 °F - 69.8 °F 88% 29.89 in 6.2 mi South 8.1 mph - N/A   Scattered Clouds
3:30 AM 73.4 °F - 69.8 °F 88% 29.86 in 6.2 mi SSE 10.4 mph - N/A   Partly Cloudy
4:00 AM 74 °F - 70 °F 85% 29.88 in - SSE 10.4 mph - -  
4:00 AM 73.4 °F - 69.8 °F 88% 29.86 in 6.2 mi SSE 10.4 mph - N/A   Partly Cloudy
4:30 AM 75.2 °F - 69.8 °F 83% 29.86 in 6.2 mi SSE 11.5 mph - N/A   Scattered Clouds
5:00 AM 75.2 °F - 69.8 °F 83% 29.86 in 6.2 mi SSE 10.4 mph - N/A   Partly Cloudy
5:30 AM 75.2 °F - 69.8 °F 83% 29.86 in 6.2 mi SSE 11.5 mph - N/A Rain Light Rain Showers
6:00 AM 76 °F - 69 °F 73% 29.89 in 9 mi SSE 9.2 mph - -   Partly Cloudy
6:00 AM 75.2 °F - 69.8 °F 83% 29.89 in 6.2 mi SSE 9.2 mph - N/A   Partly Cloudy
6:30 AM 75.2 °F - 69.8 °F 83% 29.89 in 6.2 mi SSE 10.4 mph - N/A   Mostly Cloudy
7:00 AM 77 °F - 70 °F 73% 29.91 in - SSE 11.5 mph - -  
7:00 AM 77.0 °F - 69.8 °F 78% 29.89 in 6.2 mi SSE 11.5 mph - N/A   Scattered Clouds
7:30 AM 78.8 °F - 71.6 °F 78% 29.92 in 6.2 mi SSE 10.4 mph - N/A   Scattered Clouds
8:00 AM 80.6 °F 83.9 °F 69.8 °F 70% 29.92 in 6.2 mi SSE 11.5 mph - N/A   Partly Cloudy
8:30 AM 84.2 °F 88.4 °F 69.8 °F 62% 29.92 in 6.2 mi SSE 15.0 mph - N/A   Partly Cloudy
9:00 AM 84 °F - 67 °F 48% 29.92 in 19 mi SE 18.4 mph - -   Partly Cloudy
9:00 AM 84.2 °F 87.3 °F 68.0 °F 58% 29.92 in 6.2 mi SE 18.4 mph - N/A   Partly Cloudy
9:30 AM 84.2 °F 86.6 °F 66.2 °F 55% 29.92 in 6.2 mi SE 16.1 mph - N/A   Partly Cloudy
10:00 AM 86 °F - 67 °F 43% 29.92 in - SE 18.4 mph - -  
10:00 AM 86.0 °F 88.2 °F 66.2 °F 51% 29.92 in 6.2 mi SE 18.4 mph - N/A   Mostly Cloudy
11:00 AM 86.0 °F 87.3 °F 64.4 °F 48% 29.92 in 6.2 mi SE 19.6 mph - N/A   Mostly Cloudy
11:30 AM 87.8 °F 90.4 °F 66.2 °F 49% 29.89 in 6.2 mi SE 16.1 mph - N/A   Mostly Cloudy
12:00 PM 88 °F - 65 °F 37% 29.90 in - SE 18.4 mph - -  
12:00 PM 87.8 °F 90.4 °F 66.2 °F 49% 29.89 in 6.2 mi SE 18.4 mph - N/A   Mostly Cloudy
12:30 PM 87.8 °F 89.4 °F 64.4 °F 46% 29.89 in 6.2 mi SE 19.6 mph - N/A   Mostly Cloudy
1:00 PM 88 °F - 65 °F 36% 29.88 in - SE 20.7 mph - -  
1:00 PM 87.8 °F 89.4 °F 64.4 °F 46% 29.86 in 6.2 mi SE 20.7 mph - N/A   Mostly Cloudy
1:30 PM 89.6 °F 91.1 °F 64.4 °F 43% 29.86 in 6.2 mi SE 21.9 mph - N/A   Mostly Cloudy
2:00 PM 87.8 °F 89.4 °F 64.4 °F 46% 29.83 in 6.2 mi SE 21.9 mph - N/A   Scattered Clouds
2:30 PM 87.8 °F 87.6 °F 60.8 °F 40% 29.83 in 6.2 mi SE 20.7 mph - N/A   Scattered Clouds
3:00 PM 88 °F - 63 °F 33% 29.84 in - SE 20.7 mph - -  
3:00 PM 87.8 °F 88.5 °F 62.6 °F 43% 29.83 in 6.2 mi SE 20.7 mph - N/A   Scattered Clouds
4:00 PM 87 °F - 61 °F 32% 29.84 in - SE 21.9 mph - -  
4:00 PM 86.0 °F 86.1 °F 60.8 °F 43% 29.83 in 6.2 mi SE 21.9 mph - N/A   Scattered Clouds
4:30 PM 86.0 °F 86.1 °F 60.8 °F 43% 29.83 in 6.2 mi SE 20.7 mph - N/A   Scattered Clouds
5:00 PM 86.0 °F 86.1 °F 60.8 °F 43% 29.83 in 6.2 mi SE 23.0 mph - N/A   Mostly Cloudy
5:30 PM 84.2 °F 85.6 °F 64.4 °F 51% 29.86 in 6.2 mi SE 21.9 mph - N/A   Mostly Cloudy
6:00 PM 82 °F - 65 °F 46% 29.87 in - SE 23.0 mph - -  
6:00 PM 82.4 °F 83.9 °F 64.4 °F 54% 29.86 in 6.2 mi SE 23.0 mph - N/A   Mostly Cloudy
6:30 PM 80.6 °F 82.3 °F 64.4 °F 58% 29.86 in 6.2 mi SE 21.9 mph - N/A   Mostly Cloudy
7:00 PM 80 °F - 67 °F 55% 29.89 in - SE 18.4 mph - -  
7:00 PM 80.6 °F 82.7 °F 66.2 °F 61% 29.89 in 6.2 mi SE 18.4 mph - N/A   Mostly Cloudy
7:30 PM 80.6 °F 82.7 °F 66.2 °F 61% 29.89 in 6.2 mi SE 17.3 mph - N/A   Scattered Clouds
8:00 PM 78.8 °F - 66.2 °F 65% 29.89 in 6.2 mi SSE 13.8 mph - N/A   Partly Cloudy
8:30 PM 78.8 °F - 66.2 °F 65% 29.92 in 6.2 mi South 9.2 mph - N/A   Partly Cloudy
9:00 PM 78 °F - 66 °F 58% 29.92 in - South 8.1 mph - -  
9:00 PM 78.8 °F - 66.2 °F 65% 29.92 in 6.2 mi South 8.1 mph - N/A   Partly Cloudy
9:30 PM 77.0 °F - 66.2 °F 69% 29.92 in 6.2 mi South 8.1 mph - N/A   Partly Cloudy
10:00 PM 77 °F - 67 °F 63% 29.94 in - South 8.1 mph - -  
10:00 PM 77.0 °F - 66.2 °F 69% 29.92 in 6.2 mi South 8.1 mph - N/A   Partly Cloudy
10:30 PM 77.0 °F - 68.0 °F 74% 29.95 in 6.2 mi SSE 8.1 mph - N/A   Partly Cloudy
11:00 PM 77.0 °F - 66.2 °F 69% 29.92 in 6.2 mi South 8.1 mph - N/A   Partly Cloudy
11:30 PM 77.0 °F - 66.2 °F 69% 29.92 in 6.2 mi South 9.2 mph - N/A   Scattered Clouds